User: anonymous   Login
Location: Unspecified
(0.0000°N, 0.0000°E)
Time: 02:57:29
(UTC+00:00)
Language:

ESSA 4 - Orbit

View from above orbital plane
View from above orbital plane
View from above satellite
View from above satellite

Ground track
Ground track

The orbit data is extracted from the following two-line orbital elements,

1 02657U 67006A   18171.54812997 -.00000055  00000-0 -26177-4 0  9991
2 02657 102.0567 205.7487 0072915 256.8573 272.6785 12.69843511382512
Epoch (UTC): 20 June 2018 13:09:18
Eccentricity: 0.0072915
inclination: 102.0567°
perigee height: 1326 km
apogee height: 1439 km
right ascension of ascending node: 205.7487°
argument of perigee: 256.8573°
revolutions per day: 12.69843511
mean anomaly at epoch: 272.6785°
orbit number at epoch: 38251

The dashed part of the orbit path shows where the satellite is in the earth's shadow,  

DLR